Location: ??????
(55.6500°N, 37.8000°E)
Time: 10:53:17
(UTC+00:00)

Cosmos 1805 - Pass Details

Date: 14 April 2024
Orbit: 490 x 494 km, 82.5° (Epoch: 18 May)

Event Time Altitude Azimuth Distance (km) Brightness Sun altitude
Rises 00:31:51 0° 350° (N) 2,588 7.2 -14.6°
Reaches altitude 10° 00:34:00 10° 354° (N) 1,699 6.3 -14.4°
Maximum altitude 00:37:41 60° 75° (ENE) 571 3.7 -14.0°
Drops below altitude 10° 00:41:20 10° 156° (SSE) 1,682 5.6 -13.6°
Sets 00:43:27 0° 160° (SSE) 2,559 6.5 -13.4°
